Location: Home
(51.5204°N, 2.5456°W)
Time: 23:57:42
(UTC+00:00)

STRAND 1 - Visible Passes

Search period start: 07 December 2019 00:00
Search period end: 17 December 2019 00:00
Orbit: 767 x 782 km, 98.5° (Epoch: 07 December)

Date Brightness Start Highest point End Pass type
(mag) Time Alt. Az. Time Alt. Az. Time Alt. Az.
07 Dec ? 05:44:53 10° SE 05:49:34 37° ENE 05:54:16 10° N visible
08 Dec ? 05:12:00 10° ESE 05:15:52 22° ENE 05:19:45 10° N visible
08 Dec ? 06:49:28 10° S 06:54:35 72° WSW 06:59:44 10° NNW visible
09 Dec ? 04:39:57 10° ENE 04:42:20 13° NE 04:44:44 10° NNE visible
09 Dec ? 06:15:32 10° SSE 06:20:36 64° ENE 06:25:40 10° N visible
10 Dec ? 05:42:08 10° SE 05:46:46 36° ENE 05:51:24 10° N visible
10 Dec ? 07:21:05 10° SSW 07:25:54 40° W 07:30:44 10° NNW visible
11 Dec ? 05:09:18 10° ESE 05:13:05 21° ENE 05:16:51 10° N visible
11 Dec ? 06:46:38 10° S 06:51:45 75° WSW 06:56:54 10° NNW visible
12 Dec ? 04:37:21 10° ENE 04:39:33 13° NE 04:41:45 10° NNE visible
12 Dec ? 06:12:44 10° SSE 06:17:46 60° ENE 06:22:49 10° N visible
13 Dec ? 05:39:22 10° SE 05:43:57 34° ENE 05:48:32 10° N visible
13 Dec ? 07:18:13 10° S 07:23:04 42° W 07:27:56 10° NNW visible
14 Dec ? 05:06:37 10° ESE 05:10:17 20° NE 05:13:57 10° N visible
14 Dec ? 06:43:48 10° SSE 06:48:55 79° WSW 06:54:04 10° NNW visible
15 Dec ? 04:34:47 10° ENE 04:36:46 12° NE 04:38:45 10° NNE visible
15 Dec ? 06:09:57 10° SSE 06:14:58 58° ENE 06:19:58 10° N visible
16 Dec ? 05:36:37 10° SE 05:41:08 33° ENE 05:45:40 10° N visible
16 Dec ? 07:15:19 10° S 07:20:13 44° W 07:25:07 10° NNW visible
